Edinburg, TX

1:52 AM CDT on April 22, 2018 (GMT -0500)
Edinburg

Weather History for KEBG - May, 2013

Change the Weather History Date:

Sunday, May 5, 2013

  Actual Average (KMFE) Record (KMFE)
Temperature  
Mean Temperature 74 °F -  
Max Temperature 89 °F 89 °F 106 °F (1999)
Min Temperature 60 °F 69 °F 52 °F (1970)
Cooling Degree Days 10    
Growing Degree Days 24 (Base 50)    
Moisture  
Dew Point 51 °F    
Average Humidity 51    
Maximum Humidity 81    
Minimum Humidity 16    
Precipitation  
Precipitation 0.00 in - - ()
Sea Level Pressure  
Sea Level Pressure 30.01 in    
Wind  
Wind Speed 6 mph (ESE)    
Max Wind Speed 15 mph    
Max Gust Speed 20 mph    
Visibility 7 miles    
Events      
Averages and records for this station are not official NWS values.
T = Trace of Precipitation, MM = Missing Value Source: NWS Daily Summary

Daily Weather History Graph

Daily Weather History Graph

Search for Another Location

Airport or City:

Astronomy

May. 05, 2013 Rise Set
Actual Time 6:51 AM CDT 8:07 PM CDT
Civil Twilight 6:27 AM CDT 8:31 PM CDT
Nautical Twilight 5:57 AM CDT 9:00 PM CDT
Astronomical Twilight 5:27 AM CDT 9:31 PM CDT
Moon 3:59 AM CDT (5/5) 4:28 PM CDT (5/5)
Length of Visible Light 14h 04m
Length of Day
13h 15m
Waning Crescent, 18% of the Moon is Illuminated
May 5
Waning Crescent
May 9
New
May 17
First Quarter
May 24
Full
May 31
Last Quarter

Hourly Weather History & Observations

Time (CDT) Temp. Dew Point Humidity Pressure Visibility Wind Dir Wind Speed Gust Speed Precip Events Conditions
12:15 AM 65.5 °F 50.9 °F 59% 29.99 in 10.0 mi SE 8.1 mph - N/A   Clear
12:35 AM 64.8 °F 51.1 °F 61% 29.99 in 7.0 mi SE 4.6 mph - N/A   Clear
12:55 AM 63.5 °F 51.3 °F 64% 29.99 in 7.0 mi SE 4.6 mph - N/A   Clear
1:15 AM 63.0 °F 51.4 °F 66% 29.99 in 7.0 mi ESE 4.6 mph - N/A   Clear
1:35 AM 63.5 °F 51.1 °F 64% 29.99 in 7.0 mi ESE 5.8 mph - N/A   Clear
1:55 AM 62.8 °F 51.4 °F 66% 29.98 in 7.0 mi ESE 4.6 mph - N/A   Clear
2:15 AM 62.2 °F 51.8 °F 69% 29.98 in 7.0 mi East 4.6 mph - N/A   Clear
2:35 AM 60.8 °F 52.0 °F 73% 29.97 in 7.0 mi ESE 4.6 mph - N/A   Clear
3:15 AM 61.7 °F 52.7 °F 72% 29.97 in 5.0 mi ESE 4.6 mph - N/A   Haze
3:35 AM 60.8 °F 52.9 °F 75% 29.97 in 5.0 mi Calm Calm - N/A   Haze
3:55 AM 61.7 °F 52.9 °F 73% 29.97 in 7.0 mi ESE 3.5 mph - N/A   Clear
4:15 AM 60.8 °F 52.7 °F 75% 29.97 in 7.0 mi SE 3.5 mph - N/A   Clear
4:35 AM 61.5 °F 53.4 °F 75% 29.97 in 7.0 mi ESE 3.5 mph - N/A   Clear
4:55 AM 60.8 °F 53.6 °F 77% 29.97 in 7.0 mi SSE 3.5 mph - N/A   Clear
5:55 AM 61.5 °F 54.0 °F 76% 29.98 in 7.0 mi Calm Calm - N/A   Clear
6:15 AM 62.2 °F 54.0 °F 74% 29.99 in 7.0 mi Calm Calm - N/A   Clear
6:35 AM 61.9 °F 53.8 °F 75% 29.98 in 5.0 mi East 4.6 mph - N/A   Haze
6:55 AM 60.3 °F 54.3 °F 81% 29.98 in 7.0 mi Calm Calm - N/A   Clear
7:15 AM 61.3 °F 54.0 °F 77% 29.99 in 7.0 mi Calm Calm - N/A   Clear
7:35 AM 61.7 °F 54.5 °F 77% 30.00 in 7.0 mi Calm Calm - N/A   Clear
7:55 AM 63.0 °F 54.5 °F 74% 30.01 in 5.0 mi Calm Calm - N/A   Haze
8:15 AM 65.1 °F 55.6 °F 71% 30.02 in 5.0 mi Calm Calm - N/A   Haze
8:35 AM 67.5 °F 56.5 °F 68% 30.02 in 7.0 mi Calm Calm - N/A   Clear
9:15 AM 71.6 °F 57.6 °F 61% 30.03 in 5.0 mi ESE 4.6 mph - N/A   Haze
9:35 AM 73.4 °F 57.9 °F 58% 30.04 in 7.0 mi SE 3.5 mph - N/A   Clear
9:55 AM 74.3 °F 57.4 °F 55% 30.05 in 7.0 mi SSW 4.6 mph - N/A   Clear
10:15 AM 75.2 °F 55.9 °F 51% 30.05 in 5.0 mi SSW 4.6 mph - N/A   Haze
10:35 AM 75.7 °F 55.2 °F 49% 30.05 in 7.0 mi SSW 4.6 mph - N/A   Clear
10:55 AM 77.0 °F 54.7 °F 46% 30.05 in 7.0 mi Calm Calm - N/A   Clear
11:15 AM 78.6 °F 55.6 °F 45% 30.06 in 7.0 mi ESE 3.5 mph - N/A   Clear
11:35 AM 79.2 °F 52.7 °F 40% 30.06 in 4.0 mi Calm Calm - N/A   Haze
11:55 AM 81.0 °F 50.0 °F 34% 30.06 in 7.0 mi Calm Calm - N/A   Clear
12:15 PM 82.2 °F 49.6 °F 32% 30.06 in 5.0 mi NE 6.9 mph - N/A   Haze
12:35 PM 82.4 °F 46.9 °F 29% 30.05 in 10.0 mi ENE 4.6 mph - N/A   Clear
12:55 PM 83.3 °F 45.9 °F 27% 30.05 in 5.0 mi Calm Calm - N/A   Haze
1:15 PM 85.1 °F 44.1 °F 24% 30.04 in 7.0 mi ENE 5.8 mph - N/A   Clear
1:35 PM 86.0 °F 40.6 °F 20% 30.03 in 7.0 mi NNE 5.8 mph - N/A   Clear
1:55 PM 86.9 °F 40.3 °F 19% 30.03 in 5.0 mi ESE 8.1 mph 16.1 mph N/A   Haze
2:15 PM 87.6 °F 39.4 °F 18% 30.02 in 7.0 mi ENE 10.4 mph - N/A   Clear
2:35 PM 88.0 °F 37.6 °F 17% 30.02 in 7.0 mi ESE 6.9 mph 16.1 mph N/A   Clear
2:55 PM 88.5 °F 36.7 °F 16% 30.01 in 7.0 mi ENE 9.2 mph 17.3 mph N/A   Clear
3:15 PM 88.3 °F 37.9 °F 17% 30.00 in 7.0 mi ESE 9.2 mph - N/A   Clear
3:35 PM 89.2 °F 43.9 °F 21% 29.99 in 7.0 mi ESE 10.4 mph 16.1 mph N/A   Clear
3:55 PM 88.7 °F 43.2 °F 20% 29.99 in 7.0 mi East 10.4 mph 19.6 mph N/A   Clear
4:15 PM 88.5 °F 42.4 °F 20% 29.98 in 7.0 mi East 15.0 mph 18.4 mph N/A   Clear
4:35 PM 87.8 °F 42.6 °F 21% 29.98 in 7.0 mi East 10.4 mph 18.4 mph N/A   Clear
5:35 PM 86.4 °F 43.7 °F 22% 29.98 in 10.0 mi ESE 13.8 mph 19.6 mph N/A   Clear
5:55 PM 85.6 °F 44.8 °F 24% 29.98 in 7.0 mi East 12.7 mph - N/A   Clear
6:15 PM 84.7 °F 46.8 °F 27% 29.99 in 7.0 mi ESE 15.0 mph - N/A   Clear
6:35 PM 83.8 °F 47.8 °F 28% 29.99 in 5.0 mi ESE 15.0 mph - N/A   Haze
6:55 PM 82.6 °F 48.0 °F 30% 29.99 in 7.0 mi ESE 13.8 mph - N/A   Clear
7:15 PM 81.7 °F 46.9 °F 30% 30.00 in 7.0 mi ESE 15.0 mph - N/A   Clear
7:35 PM 80.2 °F 48.2 °F 32% 30.00 in 7.0 mi ESE 13.8 mph - N/A   Clear
7:55 PM 78.6 °F 52.7 °F 40% 30.01 in 7.0 mi ESE 10.4 mph - N/A   Clear
8:15 PM 77.0 °F 53.1 °F 43% 30.02 in 7.0 mi SE 13.8 mph - N/A   Clear
8:35 PM 75.2 °F 54.0 °F 47% 30.02 in 7.0 mi SE 10.4 mph - N/A   Clear
8:55 PM 74.1 °F 54.1 °F 50% 30.03 in 7.0 mi SE 11.5 mph - N/A   Clear
9:15 PM 73.2 °F 55.0 °F 53% 30.04 in 7.0 mi SE 10.4 mph - N/A   Clear
9:35 PM 71.8 °F 55.4 °F 56% 30.05 in 7.0 mi SE 8.1 mph - N/A   Clear
9:55 PM 70.9 °F 55.8 °F 59% 30.05 in 7.0 mi ESE 6.9 mph - N/A   Clear
10:15 PM 70.0 °F 56.1 °F 61% 30.06 in 7.0 mi ESE 6.9 mph - N/A   Clear
10:35 PM 69.3 °F 56.5 °F 64% 30.06 in 7.0 mi ESE 6.9 mph - N/A   Clear
10:55 PM 68.0 °F 56.8 °F 67% 30.07 in 7.0 mi ESE 5.8 mph - N/A   Clear
11:15 PM 66.7 °F 57.0 °F 71% 30.08 in 7.0 mi ESE 5.8 mph - N/A   Clear
11:35 PM 65.5 °F 57.2 °F 75% 30.08 in 7.0 mi ESE 5.8 mph - N/A   Clear
11:55 PM 64.9 °F 57.2 °F 76% 30.08 in 7.0 mi ESE 4.6 mph - N/A   Clear